Regional Weather Roundup
Issued by NWS

Home | Current Version | Previous Version | Text Only | Print | Product List | Glossary On
Versions: 1 2 3 4 5 6 7 8 9 10 11 12 13 14 15 16 17 18 19 20 21 22 23 24 25 26 27 28 29 30 31 32 33 34 35 36 37 38 39 40 41 42 43 44 45 46 47 48 49 50
000
ASUS45 KABQ 271810
RWRNM
NEW MEXICO REGIONAL WEATHER ROUNDUP
NATIONAL WEATHER SERVICE ALBUQUERQUE NM
1200 PM MDT WED MAY 27 2015

NOTE: "FAIR" MEANS FEW OR NO CLOUDS BELOW 12,000 FEET AGL WITH NO
       SIGNIFICANT WEATHER OR OBSTRUCTIONS TO VISION.

      THIS PRODUCT IS RELEASED AS TWO VERSIONS.  ONE VERSION NEAR
      THE TOP OF THE HOUR CONTAINING PRELIMINARY DATA FROM ALBUQUERQUE
      AND OTHER STATIONS.  A FINAL VERSION WITH ADDITIONAL DATA IS
      ISSUED ABOUT 10 MINUTES AFTER THE HOUR.

NMZ501-503-504-510>518-271900-
NORTHWEST PLATEAU/NORTHCENTRAL MOUNTAINS

CITY           SKY/WX    TMP DP  RH WIND       PRES   REMARKS
FARMINGTON     PTSUNNY   70  42  36 E7        30.14F
6HR MIN TEMP:  46; 6HR MAX TEMP:  70;

LOS ALAMOS     SUNNY     66  35  30 S12G18    30.25F
SANTA FE       SUNNY     73  35  25 S12G20    30.19F
6HR MIN TEMP:  48; 6HR MAX TEMP:  73;

TAOS           PTSUNNY   68  37  32 SW13      30.23F
ANGEL FIRE     MOCLDY    60  37  41 S14       30.30S

$$
NMZ402-403-502-505>509-271900-
WESTCENTRAL MOUNTAINS/SOUTHWEST MOUNTAINS

CITY           SKY/WX    TMP DP  RH WIND       PRES   REMARKS
GALLUP         SUNNY     72  27  18 SW14G23   30.19S
6HR MIN TEMP:  41; 6HR MAX TEMP:  72;

GRANTS         MOSUNNY   73  25  16 SE7       30.21F
SILVER CITY      N/A     77  23  13 SW10G17   30.17S

$$
NMZ407-409-411-412-271900-
SOUTHERN DESERTS

CITY           SKY/WX    TMP DP  RH WIND       PRES   REMARKS
LORDSBURG      FAIR      79  27  14 NW3       30.08F
DEMING         CLOUDY    81  27  14 SW8       30.09F
6HR MIN TEMP:  48; 6HR MAX TEMP:  81;

LAS CRUCES     CLOUDY    82  25  12 CALM      30.11S
HOLLOMAN AFB   PTSUNNY   85  24  10 SW5       30.06F
ALAMOGORDO     PTSUNNY   86  25  10 SW13      30.08F
T OR C         PTSUNNY   79  28  15 VRB7      30.11F
6HR MIN TEMP:  53; 6HR MAX TEMP:  79;


$$
NMZ519>523-271900-
CENTRAL VALLEYS/CENTRAL HIGHLANDS

CITY           SKY/WX    TMP DP  RH WIND       PRES   REMARKS
ALBUQUERQUE    PTSUNNY   74  43  32 S9        30.16F
6HR MIN TEMP:  57; 6HR MAX TEMP:  74;

DOUBLE EAGLE   PTSUNNY   72  45  37 S6        30.20S
MORIARTY ARPT  FAIR      72  36  27 SW5       30.22F
6HR MIN TEMP:  45; 6HR MAX TEMP:  72;

CLINES CORNERS MOSUNNY   71  35  26 S10G18    30.24S
6HR MIN TEMP:  52; 6HR MAX TEMP:  71;

BELEN          FAIR      73  39  29 SE6       30.16S
6HR MIN TEMP:  50; 6HR MAX TEMP:  73;

SOCORRO        FAIR      75  35  23 SE5       30.13S
6HR MIN TEMP:  53; 6HR MAX TEMP:  76;


$$
NMZ524>526-539-540-271900-
SOUTHCENTRAL MOUNTAINS

CITY           SKY/WX    TMP DP  RH WIND       PRES   REMARKS
RUIDOSO        PTSUNNY   73  23  15 SE8       30.26F

$$
NMZ527>531-271900-
NORTHEAST HIGHLANDS/NORTHEAST PLAINS

CITY           SKY/WX    TMP DP  RH WIND       PRES   REMARKS
LAS VEGAS      MOSUNNY   70  38  31 S14       30.23F
6HR MIN TEMP:  51; 6HR MAX TEMP:  70;

RATON          PTSUNNY   70  43  37 S9G18     30.18F
6HR MIN TEMP:  43; 6HR MAX TEMP:  71;

CLAYTON        SUNNY     76  50  40 SW12G20   30.13F
6HR MIN TEMP:  49; 6HR MAX TEMP:  77;


$$
NMZ532>537-271900-
EASTCENTRAL PLAINS

CITY           SKY/WX    TMP DP  RH WIND       PRES   REMARKS
TUCUMCARI      SUNNY     82  50  32 S10       30.07F
6HR MIN TEMP:  58; 6HR MAX TEMP:  83;

CANNON AFB     PTSUNNY   80  59  48 S14       30.11F
6HR MIN TEMP:  55; 6HR MAX TEMP:  80;

CLOVIS AIRPORT MOSUNNY   79  61  53 S14G21      N/A

$$
NMZ028-029-538-271900-
SOUTHEAST PLAINS

CITY           SKY/WX    TMP DP  RH WIND       PRES   REMARKS
ROSWELL        PTSUNNY   83  58  42 S13       30.07F
6HR MIN TEMP:  53; 6HR MAX TEMP:  83;

ARTESIA        SUNNY     82  63  51 SE9G16    30.07F
CARLSBAD       SUNNY     84  60  44 SE8       30.04F
6HR MIN TEMP:  54; 6HR MAX TEMP:  85;

HOBBS          SUNNY     81  64  57 SE12      30.10F


$$



USA.gov is the U.S. government's official web portal to all federal, state and local government web resources and services.